Vagabond Aaf / Yakim, WA

3:13 AM PDT on July 22, 2017 (GMT -0700)
Vagabond Aaf / Yakim

Weather History for K1YT - October, 2013

Change the Weather History Date:

Tuesday, October 1, 2013

  Actual Average (KYKM) Record (KYKM)
Temperature  
Mean Temperature 46 °F -  
Max Temperature 59 °F 74 °F 88 °F (1992)
Min Temperature 36 °F 40 °F 23 °F (1950)
Degree Days  
Heating Degree Days 18    
Moisture  
Dew Point 36 °F    
Average Humidity 69    
Maximum Humidity 89    
Minimum Humidity 36    
Precipitation  
Precipitation 0.00 in - - ()
Sea Level Pressure  
Sea Level Pressure 30.01 in    
Wind  
Wind Speed 5 mph ()    
Max Wind Speed 16 mph    
Max Gust Speed 22 mph    
Visibility 12.0 miles    
Events Rain    
Averages and records for this station are not official NWS values.
T = Trace of Precipitation, MM = Missing Value Source: Averaged Metar Reports

Daily Weather History Graph

Daily Weather History Graph

Search for Another Location

Airport or City:

Trip Planner

Search our weather history database for the weather conditions in past years. The results will help you decide how hot, cold, wet, or windy it might be!

Date:

Astronomy

Oct. 01, 2013 Rise Set
Actual Time 7:00 AM PDT 6:40 PM PDT
Civil Twilight 6:30 AM PDT 7:10 PM PDT
Nautical Twilight 5:55 AM PDT 7:46 PM PDT
Astronomical Twilight 5:19 AM PDT 8:21 PM PDT
Moon 3:29 AM PDT (10/1) 4:55 PM PDT (10/1)
Length of Visible Light 12h 40m
Length of Day
11h 39m
Waning Crescent, 11% of the Moon is Illuminated
Oct 1
Waning Crescent
Oct 4
New
Oct 11
First Quarter
Oct 18
Full
Oct 26
Last Quarter

Hourly Weather History & Observations

Time (PDT) Temp. Windchill Dew Point Humidity Pressure Visibility Wind Dir Wind Speed Gust Speed Precip Events Conditions
12:56 AM 46.4 °F 41.5 °F 36.9 °F 69% 29.93 in 12.0 mi South 10.4 mph - N/A   Partly Cloudy
1:56 AM 47.8 °F - 36.5 °F 65% 29.94 in 12.0 mi SSE 9.2 mph - N/A   Mostly Cloudy
2:56 AM 42.1 °F 39.2 °F 35.8 °F 78% 29.95 in 12.0 mi North 4.6 mph - N/A   Mostly Cloudy
3:56 AM 43.3 °F 40.7 °F 35.6 °F 74% 29.95 in 12.0 mi WNW 4.6 mph - N/A   Clear
4:56 AM 38.5 °F 36.1 °F 34.0 °F 84% 29.95 in 12.0 mi SSE 3.5 mph - N/A   Partly Cloudy
5:56 AM 37.0 °F - 33.8 °F 88% 29.96 in 12.0 mi North 2.3 mph - N/A   Partly Cloudy
6:56 AM 36.3 °F - 33.4 °F 89% 29.96 in 12.0 mi SW 2.3 mph - N/A   Scattered Clouds
7:56 AM 39.4 °F 37.2 °F 35.6 °F 86% 29.97 in 12.0 mi North 3.5 mph - N/A   Mostly Cloudy
8:56 AM 42.8 °F - 36.1 °F 77% 29.98 in 12.0 mi Variable 1.2 mph - N/A   Mostly Cloudy
8:59 AM 42.8 °F - 35.6 °F 76% 29.98 in 12.0 mi Variable 1.2 mph - N/A Rain Light Rain
9:15 AM 42.8 °F - 37.4 °F 81% 29.98 in 12.0 mi North 2.3 mph - N/A   Partly Cloudy
9:56 AM 45.9 °F - 38.1 °F 74% 29.99 in 12.0 mi East 1.2 mph - N/A   Clear
10:56 AM 48.9 °F - 39.2 °F 69% 29.99 in 12.0 mi North 1.2 mph - N/A   Scattered Clouds
11:56 AM 50.4 °F - 40.1 °F 68% 29.99 in 12.0 mi NW 3.5 mph - N/A   Scattered Clouds
12:56 PM 52.9 °F - 40.5 °F 63% 30.00 in 12.0 mi SSW 8.1 mph - N/A   Scattered Clouds
1:56 PM 54.3 °F - 40.1 °F 59% 30.00 in 12.0 mi SW 9.2 mph - N/A   Scattered Clouds
2:56 PM 57.0 °F - 38.1 °F 49% 30.01 in 12.0 mi WSW 9.2 mph 13.8 mph N/A   Partly Cloudy
3:56 PM 57.4 °F - 36.1 °F 45% 30.01 in 12.0 mi WNW 11.5 mph 15.0 mph N/A   Scattered Clouds
4:56 PM 57.6 °F - 30.9 °F 36% 30.03 in 12.0 mi West 16.1 mph 21.9 mph N/A   Partly Cloudy
5:56 PM 55.0 °F - 37.4 °F 51% 30.05 in 12.0 mi North 3.5 mph - N/A   Clear
6:56 PM 48.9 °F - 36.3 °F 62% 30.07 in 12.0 mi WNW 6.9 mph - N/A   Clear
7:56 PM 45.9 °F 44.6 °F 33.6 °F 62% 30.09 in 12.0 mi West 3.5 mph - N/A   Clear
8:56 PM 45.9 °F - 33.1 °F 61% 30.11 in 12.0 mi SSW 2.3 mph - N/A   Clear
9:56 PM 44.6 °F 41.4 °F 33.6 °F 65% 30.13 in 12.0 mi SW 5.8 mph - N/A   Clear
10:56 PM 39.6 °F 36.3 °F 32.0 °F 74% 30.13 in 12.0 mi Variable 4.6 mph - N/A   Clear
11:56 PM 36.9 °F - 31.6 °F 81% 30.14 in 12.0 mi NNW 2.3 mph - N/A   Clear